When you browse on this site, cookies collect data to enhance your experience and personalize the content and advertising you see.
Visit our Privacy Policy to learn more. By continuing to use the site, you agree to this use of cookies and data.
  • In United Kingdom
  • List of Countries
  • For 7 days
  • Water Temperature
  • Weather Map
  • Weather Widgets
  • user-avatar
    Login

    Hourly Weather Cluj-Napoca

    Today, 21 October, Monday

    Time Temperature Precipitation Wind Pressure Humidity
    00:00 +15°C° 0 mm 1 mps 729 mmHg 66%
    01:00 +15°C° 0 mm 1 mps 729 mmHg 67%
    02:00 +13°C° 0 mm 0 mps 729 mmHg 70%
    03:00 +14°C° 0 mm 1 mps 729 mmHg 71%
    04:00 +14°C° 0 mm 1 mps 729 mmHg 72%
    05:00 +13°C° 0 mm 1 mps 729 mmHg 72%
    06:00 +14°C° 0 mm 1 mps 730 mmHg 71%
    07:00 +14°C° 0 mm 1 mps 730 mmHg 70%
    08:00 +15°C° 0 mm 1 mps 730 mmHg 69%
    09:00 +18°C° 0 mm 1 mps 730 mmHg 62%
    10:00 +20°C° 0 mm 1 mps 730 mmHg 55%
    11:00 +22°C° 0 mm 1 mps 731 mmHg 48%
    12:00 +23°C° 0 mm 1 mps 731 mmHg 46%
    13:00 +24°C° 0 mm 1 mps 731 mmHg 43%
    14:00 +25°C° 0 mm 1 mps 731 mmHg 41%
    15:00 +24°C° 0 mm 1 mps 730 mmHg 45%
    16:00 +20°C° 0 mm 0 mps 730 mmHg 50%
    17:00 +19°C° 0 mm 0 mps 730 mmHg 55%
    18:00 +18°C° 0 mm 0 mps 730 mmHg 58%
    19:00 +17°C° 0 mm 0 mps 730 mmHg 61%
    20:00 +18°C° 0 mm 1 mps 730 mmHg 64%
    21:00 +16°C° 0 mm 1 mps 730 mmHg 64%
    22:00 +16°C° 0 mm 1 mps 730 mmHg 65%
    23:00 +16°C° 0 mm 1 mps 730 mmHg 66%

    Tomorrow, 22 October, Tuesday

    Time Temperature Precipitation Wind Pressure Humidity
    00:00 +14°C° 0 mm 0 mps 730 mmHg 66%
    01:00 +14°C° 0 mm 0 mps 730 mmHg 66%
    02:00 +14°C° 0 mm 0 mps 731 mmHg 66%
    03:00 +14°C° 0 mm 0 mps 730 mmHg 67%
    04:00 +13°C° 0 mm 0 mps 730 mmHg 68%
    05:00 +13°C° 0 mm 0 mps 730 mmHg 69%
    06:00 +13°C° 0 mm 0 mps 730 mmHg 68%
    07:00 +14°C° 0 mm 0 mps 731 mmHg 67%
    08:00 +14°C° 0 mm 0 mps 731 mmHg 66%
    09:00 +18°C° 0 mm 1 mps 731 mmHg 59%
    10:00 +21°C° 0 mm 1 mps 731 mmHg 52%
    11:00 +23°C° 0 mm 1 mps 731 mmHg 46%
    12:00 +24°C° 0 mm 1 mps 731 mmHg 43%
    13:00 +25°C° 0 mm 1 mps 731 mmHg 41%
    14:00 +26°C° 0 mm 1 mps 731 mmHg 39%
    15:00 +24°C° 0 mm 1 mps 731 mmHg 43%
    16:00 +21°C° 0 mm 0 mps 731 mmHg 48%
    17:00 +19°C° 0 mm 0 mps 730 mmHg 53%
    18:00 +18°C° 0 mm 0 mps 730 mmHg 55%
    19:00 +17°C° 0 mm 0 mps 730 mmHg 58%
    20:00 +16°C° 0 mm 0 mps 731 mmHg 61%
    21:00 +16°C° 0 mm 0 mps 730 mmHg 62%
    22:00 +15°C° 0 mm 0 mps 730 mmHg 63%
    23:00 +15°C° 0 mm 0 mps 730 mmHg 64%

    Day after tomorrow, 23 October, Wednesday

    Time Temperature Precipitation Wind Pressure Humidity
    00:00 +15°C° 0 mm 0 mps 730 mmHg 65%
    01:00 +14°C° 0 mm 0 mps 730 mmHg 66%
    02:00 +15°C° 0 mm 1 mps 730 mmHg 67%
    03:00 +15°C° 0 mm 1 mps 730 mmHg 68%
    04:00 +14°C° 0 mm 1 mps 730 mmHg 69%
    05:00 +14°C° 0 mm 1 mps 730 mmHg 70%
    06:00 +14°C° 0 mm 1 mps 730 mmHg 69%
    07:00 +15°C° 0 mm 1 mps 730 mmHg 68%
    08:00 +15°C° 0 mm 1 mps 730 mmHg 68%
    09:00 +18°C° 0 mm 1 mps 730 mmHg 61%
    10:00 +20°C° 0 mm 1 mps 730 mmHg 54%
    11:00 +21°C° 0 mm 2 mps 730 mmHg 47%
    12:00 +23°C° 0 mm 1 mps 730 mmHg 45%
    13:00 +24°C° 0 mm 1 mps 730 mmHg 43%
    14:00 +25°C° 0 mm 1 mps 730 mmHg 41%
    15:00 +23°C° 0 mm 1 mps 729 mmHg 45%
    16:00 +22°C° 0 mm 1 mps 729 mmHg 50%
    17:00 +19°C° 0 mm 0 mps 728 mmHg 55%
    18:00 +18°C° 0 mm 0 mps 729 mmHg 58%
    19:00 +17°C° 0 mm 0 mps 729 mmHg 60%
    20:00 +16°C° 0 mm 0 mps 729 mmHg 63%
    21:00 +16°C° 0 mm 1 mps 729 mmHg 63%
    22:00 +16°C° 0 mm 1 mps 728 mmHg 64%
    23:00 +16°C° 0 mm 1 mps 728 mmHg 64%

    24 October, Thursday

    Time Temperature Precipitation Wind Pressure Humidity
    00:00 +15°C° 0 mm 1 mps 728 mmHg 64%
    01:00 +15°C° 0 mm 1 mps 728 mmHg 65%
    02:00 +14°C° 0 mm 1 mps 728 mmHg 65%
    03:00 +14°C° 0 mm 1 mps 728 mmHg 65%
    04:00 +14°C° 0 mm 1 mps 728 mmHg 66%
    05:00 +14°C° 0 mm 1 mps 728 mmHg 67%
    06:00 +14°C° 0 mm 1 mps 728 mmHg 66%
    07:00 +14°C° 0 mm 1 mps 728 mmHg 65%
    08:00 +14°C° 0 mm 1 mps 728 mmHg 65%
    09:00 +18°C° 0 mm 1 mps 728 mmHg 58%
    10:00 +20°C° 0 mm 1 mps 728 mmHg 52%
    11:00 +21°C° 0 mm 2 mps 728 mmHg 46%
    12:00 +23°C° 0 mm 1 mps 728 mmHg 43%
    13:00 +24°C° 0 mm 1 mps 728 mmHg 41%
    14:00 +25°C° 0 mm 1 mps 727 mmHg 39%
    15:00 +23°C° 0 mm 1 mps 727 mmHg 44%
    16:00 +22°C° 0 mm 1 mps 727 mmHg 48%
    17:00 +18°C° 0 mm 0 mps 726 mmHg 53%
    18:00 +17°C° 0 mm 0 mps 726 mmHg 56%
    19:00 +16°C° 0 mm 0 mps 726 mmHg 58%
    20:00 +15°C° 0 mm 0 mps 727 mmHg 61%
    21:00 +15°C° 0 mm 0 mps 727 mmHg 62%
    22:00 +15°C° 0 mm 0 mps 727 mmHg 63%
    23:00 +14°C° 0 mm 0 mps 727 mmHg 64%

    25 October, Friday

    Time Temperature Precipitation Wind Pressure Humidity
    00:00 +14°C° 0 mm 0 mps 727 mmHg 64%
    01:00 +13°C° 0 mm 0 mps 727 mmHg 65%
    02:00 +13°C° 0 mm 0 mps 727 mmHg 66%
    03:00 +13°C° 0 mm 0 mps 727 mmHg 67%
    04:00 +12°C° 0 mm 0 mps 727 mmHg 68%
    05:00 +12°C° 0 mm 0 mps 727 mmHg 70%
    06:00 +12°C° 0 mm 0 mps 727 mmHg 69%
    07:00 +13°C° 0 mm 0 mps 727 mmHg 67%
    08:00 +13°C° 0 mm 0 mps 727 mmHg 66%
    09:00 +16°C° 0 mm 1 mps 727 mmHg 60%
    10:00 +20°C° 0 mm 1 mps 728 mmHg 53%
    11:00 +22°C° 0 mm 1 mps 728 mmHg 46%
    12:00 +23°C° 0 mm 1 mps 728 mmHg 43%
    13:00 +24°C° 0 mm 1 mps 728 mmHg 41%
    14:00 +24°C° 0 mm 1 mps 728 mmHg 39%
    15:00 +23°C° 0 mm 1 mps 728 mmHg 43%
    16:00 +22°C° 0 mm 1 mps 728 mmHg 47%
    17:00 +20°C° 0 mm 1 mps 728 mmHg 51%
    18:00 +19°C° 0 mm 1 mps 728 mmHg 54%
    19:00 +18°C° 0 mm 1 mps 728 mmHg 57%
    20:00 +16°C° 0 mm 1 mps 728 mmHg 59%
    21:00 +15°C° 0 mm 1 mps 728 mmHg 59%
    22:00 +15°C° 0 mm 1 mps 729 mmHg 59%
    23:00 +14°C° 0 mm 1 mps 729 mmHg 59%

    26 October, Saturday

    Time Temperature Precipitation Wind Pressure Humidity
    00:00 +14°C° 0 mm 1 mps 729 mmHg 60%
    01:00 +14°C° 0 mm 1 mps 729 mmHg 61%
    02:00 +12°C° 0 mm 0 mps 729 mmHg 61%
    03:00 +12°C° 0 mm 0 mps 729 mmHg 62%
    04:00 +12°C° 0 mm 0 mps 729 mmHg 63%
    05:00 +11°C° 0 mm 0 mps 729 mmHg 63%
    06:00 +11°C° 0 mm 0 mps 729 mmHg 63%
    07:00 +12°C° 0 mm 0 mps 729 mmHg 63%
    08:00 +12°C° 0 mm 0 mps 729 mmHg 62%
    09:00 +15°C° 0 mm 1 mps 729 mmHg 57%
    10:00 +18°C° 0 mm 1 mps 730 mmHg 51%
    11:00 +20°C° 0 mm 1 mps 730 mmHg 46%
    12:00 +21°C° 0 mm 1 mps 730 mmHg 43%
    13:00 +22°C° 0 mm 1 mps 729 mmHg 41%
    14:00 +23°C° 0 mm 1 mps 729 mmHg 39%
    15:00 +21°C° 0 mm 1 mps 729 mmHg 44%
    16:00 +18°C° 0 mm 0 mps 728 mmHg 49%
    17:00 +16°C° 0 mm 0 mps 728 mmHg 54%
    18:00 +15°C° 0 mm 0 mps 728 mmHg 56%
    19:00 +14°C° 0 mm 0 mps 728 mmHg 59%
    20:00 +14°C° 0 mm 0 mps 728 mmHg 62%
    21:00 +13°C° 0 mm 0 mps 728 mmHg 63%
    22:00 +13°C° 0 mm 0 mps 728 mmHg 65%
    23:00 +12°C° 0 mm 0 mps 728 mmHg 66%

    27 October, Sunday

    Time Temperature Precipitation Wind Pressure Humidity
    00:00 +12°C° 0 mm 0 mps 728 mmHg 68%
    01:00 +13°C° 0 mm 1 mps 728 mmHg 70%
    02:00 +12°C° 0 mm 1 mps 728 mmHg 72%
    03:00 +12°C° 0 mm 1 mps 728 mmHg 74%
    04:00 +11°C° 0 mm 1 mps 728 mmHg 76%
    05:00 +10°C° 0 mm 0 mps 728 mmHg 78%
    06:00 +10°C° 0 mm 0 mps 728 mmHg 77%
    07:00 +10°C° 0 mm 0 mps 728 mmHg 75%
    08:00 +11°C° 0 mm 0 mps 728 mmHg 74%
    09:00 +13°C° 0 mm 0 mps 728 mmHg 66%
    10:00 +15°C° 0 mm 0 mps 728 mmHg 59%
    11:00 +17°C° 0 mm 0 mps 729 mmHg 51%
    12:00 +20°C° 0 mm 1 mps 728 mmHg 49%
    13:00 +20°C° 0 mm 1 mps 728 mmHg 46%
    14:00 +20°C° 0 mm 2 mps 728 mmHg 43%
    15:00 +19°C° 0 mm 2 mps 728 mmHg 48%
    16:00 +18°C° 0 mm 2 mps 728 mmHg 53%
    17:00 +16°C° 0 mm 2 mps 727 mmHg 58%
    18:00 +15°C° 0 mm 1 mps 727 mmHg 63%
    19:00 +14°C° 0 mm 1 mps 728 mmHg 68%
    20:00 +13°C° 0 mm 1 mps 728 mmHg 72%
    21:00 +13°C° 0 mm 1 mps 728 mmHg 74%
    22:00 +12°C° 0 mm 1 mps 728 mmHg 77%
    23:00 +12°C° 0 mm 1 mps 728 mmHg 79%
    Show more